Regional Weather Roundup
Issued by NWS

Home | Current Version | Previous Version | Graphics & Text | Print | Product List | Glossary On
Versions: 1 2 3 4 5 6 7 8 9 10 11 12 13 14 15 16 17 18 19 20 21 22 23 24 25 26 27 28 29 30 31 32 33 34 35 36 37 38 39 40 41 42 43 44 45 46 47 48 49 50
000
ASUS43 KOAX 210102
RWRNE

WEATHER ROUNDUP FOR NEBRASKA
NATIONAL WEATHER SERVICE OMAHA NE
800 PM CDT WED SEP 20 2017

NOTES: SATELLITE DATA IS BEING USED TO AUGMENT CLOUD COVER ABOVE
       12000 FEET.
       "FAIR" INDICATES FEW OR NO CLOUDS BELOW 12,000 FEET WITH NO
       SIGNIFICANT WEATHER AND/OR OBSTRUCTIONS TO VISIBILITY.


NEZ001>004-019>022-054>056-210200-
NEBRASKA PANHANDLE

CITY           SKY/WX    TMP DP  RH WIND       PRES   REMARKS
SCOTTSBLUFF    CLEAR     68  35  29 E9        29.81S
ALLIANCE       CLEAR     66  33  29 S13       29.83F
CHADRON        PTCLDY    71  34  25 S16       29.78S
GORDON         FAIR      65  38  37 S7        29.83S
KIMBALL        CLEAR     66  31  27 SE12      29.86S
SIDNEY         CLEAR     66  30  26 SE14      29.87F
$$

NEZ057>060-069>072-079>082-210200-
SOUTHWEST NEBRASKA

CITY           SKY/WX    TMP DP  RH WIND       PRES   REMARKS
NORTH PLATTE   CLEAR     59  47  64 E8        29.87S
IMPERIAL       CLEAR     67  30  25 SE9       29.87S
LEXINGTON      CLEAR     69  44  40 E8        29.89S
MCCOOK         CLEAR     68  37  32 SE7       29.87S
OGALLALA       CLEAR     70  32  24 SE7       29.87F
$$

NEZ005>010-023>029-035>040-094-210200-
NORTH CENTRAL NEBRASKA

CITY           SKY/WX    TMP DP  RH WIND       PRES   REMARKS
VALENTINE      CLEAR     68  36  30 S8        29.84S
AINSWORTH      CLEAR     61  43  50 SE6       29.87S
BROKEN BOW     CLEAR     65  45  48 SE7       29.88S
O`NEILL        CLEAR     65  49  58 E3        29.88S
ORD            CLEAR     62  51  67 S3        29.87S
THEDFORD       CLEAR     67  38  34 S7        29.88R
$$

NEZ041-046>049-061>064-073>077-083>087-210200-
SOUTH CENTRAL NEBRASKA

CITY           SKY/WX    TMP DP  RH WIND       PRES   REMARKS
GRAND ISLAND   CLEAR     67  48  50 E5        29.89R
AURORA         CLEAR     64  52  65 E5        29.88S
HASTINGS       CLEAR     65  49  56 E3        29.89R
HEBRON         CLEAR     70  54  55 NE3       29.85S
HOLDREGE       CLEAR     65  40  39 E6        29.89S
KEARNEY        CLEAR     65  45  48 E7        29.89S
YORK           CLEAR     64  48  55 E6        29.88R
$$

NEZ011>018-030>034-042>045-210200-
NORTHEAST NEBRASKA

CITY           SKY/WX    TMP DP  RH WIND       PRES   REMARKS
NORFOLK        CLEAR     62  50  64 E5        29.88R
ALBION         CLEAR     64  50  60 CALM      29.88S HAZE
BLAIR          CLEAR     70  51  51 N7        29.88R
COLUMBUS       LGT RAIN  62  53  72 E6        29.88S
FREMONT        CLEAR     69  51  53 CALM      29.88S
TEKAMAH        CLEAR     62  55  77 N6        29.87S
WAYNE          CLEAR     60  55  83 E6        29.89R
$$

NEZ050>053-065>068-078-088>093-210200-
SOUTHEAST NEBRASKA

CITY           SKY/WX    TMP DP  RH WIND       PRES   REMARKS
LINCOLN        CLEAR     68  53  58 NE8       29.87S
OMAHA EPPLEY   CLEAR     67  55  65 N7        29.86R
BEATRICE       CLEAR     70  57  63 NE6       29.85S
FALLS CITY     CLOUDY    78  65  63 N5        29.81S
NEBRASKA CITY  CLEAR     72  59  64 N6        29.85S
PLATTSMOUTH    CLEAR     69  57  65 N3        29.86R
$$

NEZ044-045-051>053-067-210200-
OMAHA AREA

CITY           SKY/WX    TMP DP  RH WIND       PRES   REMARKS
OMAHA EPPLEY   CLEAR     67  55  65 N7        29.86R
BLAIR          CLEAR     70  51  51 N7        29.88R
FREMONT        CLEAR     69  51  53 CALM      29.88S
MILLARD        CLEAR     73  53  48 N3        29.86S
OFFUTT AFB     CLEAR     66  54  65 N6        29.85R
PLATTSMOUTH    CLEAR     69  57  65 N3        29.86R
WAHOO          FAIR      64  55  71 NE5       29.88R
$$




USA.gov is the U.S. government's official web portal to all federal, state and local government web resources and services.